| time (UTC) | temp F | wind direction | speed MPH | gust MPH | rain 1hr in | rain 24hr in | rain mn in | humidity % | barometer mb |
| 20260509082044 | 53 | 238 | 5.0 | 6.0 | 0.00 | 0.00 | 0.00 | 87 | 1004.7 |
| 20260509081541 | 53 | 237 | 4.0 | 4.0 | 0.00 | 0.00 | 0.00 | 87 | 1004.5 |
| 20260509081038 | 53 | 257 | 4.0 | 6.0 | 0.00 | 0.00 | 0.00 | 87 | 1004.7 |
| 20260509080536 | 53 | 182 | 6.0 | 8.0 | 0.00 | 0.00 | 0.00 | 86 | 1005.0 |
| 20260509080034 | 53 | 252 | 7.0 | 9.0 | 0.00 | 0.00 | 0.00 | 86 | 1004.9 |
| 20260509075531 | 53 | 260 | 5.0 | 7.0 | 0.00 | 0.00 | 0.00 | 86 | 1005.0 |
| 20260509075029 | 54 | 216 | 4.0 | 6.0 | 0.00 | 0.00 | 0.00 | 86 | 1004.9 |
| 20260509074526 | 54 | 275 | 6.0 | 7.0 | 0.00 | 0.00 | 0.00 | 85 | 1004.8 |
| 20260509074022 | 54 | 301 | 4.0 | 4.0 | 0.00 | 0.00 | 0.00 | 85 | 1004.8 |
| 20260509073519 | 54 | 227 | 3.0 | 3.0 | 0.00 | 0.00 | 0.00 | 85 | 1004.9 |
| 20260509073015 | 54 | 269 | 6.0 | 8.0 | 0.00 | 0.00 | 0.00 | 84 | 1005.0 |
| 20260509072512 | 54 | 265 | 5.0 | 6.0 | 0.00 | 0.00 | 0.00 | 84 | 1005.0 |
| 20260509072009 | 54 | 240 | 4.0 | 4.0 | 0.00 | 0.00 | 0.00 | 84 | 1005.1 |
| 20260509071505 | 55 | 275 | 4.0 | 4.0 | 0.00 | 0.00 | 0.00 | 84 | 1005.1 |
| 20260509071003 | 55 | 293 | 3.0 | 4.0 | 0.00 | 0.00 | 0.00 | 83 | 1005.3 |
| 20260509070500 | 55 | 257 | 2.0 | 3.0 | 0.00 | 0.00 | 0.00 | 83 | 1005.3 |
| 20260509065955 | 55 | 295 | 5.0 | 7.0 | 0.00 | 0.00 | 0.00 | 82 | 1005.4 |
| 20260509065451 | 55 | 211 | 3.0 | 4.0 | 0.00 | 0.00 | 0.00 | 82 | 1005.3 |
| 20260509064948 | 55 | 296 | 2.0 | 4.0 | 0.00 | 0.00 | 0.00 | 82 | 1005.3 |
| 20260509064446 | 55 | 250 | 4.0 | 4.0 | 0.00 | 0.00 | 0.00 | 82 | 1005.4 |
| 20260509063944 | 55 | 288 | 5.0 | 6.0 | 0.00 | 0.00 | 0.00 | 82 | 1005.3 |
| 20260509063444 | 55 | 245 | 7.0 | 9.0 | 0.00 | 0.00 | 0.00 | 82 | 1005.3 |
| 20260509062941 | 55 | 242 | 5.0 | 7.0 | 0.00 | 0.00 | 0.00 | 82 | 1005.4 |
| 20260509062439 | 55 | 262 | 4.0 | 6.0 | 0.00 | 0.00 | 0.00 | 82 | 1005.4 |
| 20260509061937 | 55 | 246 | 5.0 | 6.0 | 0.00 | 0.00 | 0.00 | 82 | 1005.6 |
| 20260509061434 | 56 | 239 | 4.0 | 4.0 | 0.00 | 0.00 | 0.00 | 81 | 1005.5 |
| 20260509060931 | 56 | 275 | 3.0 | 3.0 | 0.00 | 0.00 | 0.00 | 81 | 1005.6 |
| 20260509060428 | 56 | 250 | 5.0 | 6.0 | 0.00 | 0.00 | 0.00 | 81 | 1005.6 |
| 20260509055923 | 56 | 266 | 3.0 | 4.0 | 0.00 | 0.00 | 0.00 | 81 | 1005.6 |
| 20260509055419 | 56 | 251 | 7.0 | 9.0 | 0.00 | 0.00 | 0.00 | 80 | 1005.6 |
| 20260509054915 | 57 | 228 | 5.0 | 7.0 | 0.00 | 0.00 | 0.00 | 80 | 1005.5 |
| 20260509054412 | 57 | 254 | 7.0 | 9.0 | 0.00 | 0.00 | 0.00 | 80 | 1005.5 |
| 20260509053911 | 57 | 221 | 5.0 | 7.0 | 0.00 | 0.00 | 0.00 | 80 | 1005.4 |
| 20260509053408 | 57 | 286 | 4.0 | 4.0 | 0.00 | 0.00 | 0.00 | 79 | 1005.5 |
| 20260509052906 | 57 | 253 | 3.0 | 3.0 | 0.00 | 0.00 | 0.00 | 79 | 1005.6 |
| 20260509052403 | 57 | 264 | 6.0 | 8.0 | 0.00 | 0.00 | 0.00 | 79 | 1005.6 |
| 20260509051901 | 57 | 186 | 4.0 | 8.0 | 0.00 | 0.00 | 0.00 | 78 | 1005.5 |
| 20260509051359 | 57 | 190 | 2.0 | 4.0 | 0.00 | 0.00 | 0.00 | 78 | 1005.8 |
| 20260509050855 | 58 | 269 | 3.0 | 3.0 | 0.00 | 0.00 | 0.00 | 78 | 1005.8 |
| 20260509050352 | 58 | 308 | 2.0 | 3.0 | 0.00 | 0.00 | 0.00 | 77 | 1005.9 |
| 20260509045848 | 58 | 304 | 2.0 | 2.0 | 0.00 | 0.00 | 0.00 | 77 | 1005.7 |
| 20260509045345 | 58 | 252 | 3.0 | 4.0 | 0.00 | 0.00 | 0.00 | 76 | 1005.9 |
| 20260509044843 | 58 | 217 | 4.0 | 6.0 | 0.00 | 0.00 | 0.00 | 76 | 1005.9 |
| 20260509044340 | 58 | 220 | 4.0 | 6.0 | 0.00 | 0.00 | 0.00 | 76 | 1006.1 |
| 20260509043837 | 58 | 266 | 5.0 | 7.0 | 0.00 | 0.00 | 0.00 | 75 | 1006.1 |
| 20260509043332 | 58 | 260 | 7.0 | 8.0 | 0.00 | 0.00 | 0.00 | 75 | 1006.1 |
| 20260509042829 | 59 | 297 | 4.0 | 4.0 | 0.00 | 0.00 | 0.00 | 74 | 1006.1 |
| 20260509042325 | 59 | 241 | 5.0 | 7.0 | 0.00 | 0.00 | 0.00 | 73 | 1006.4 |
| 20260509041822 | 59 | 321 | 5.0 | 7.0 | 0.00 | 0.00 | 0.00 | 73 | 1006.3 |
| 20260509041319 | 59 | 227 | 5.0 | 6.0 | 0.00 | 0.00 | 0.00 | 72 | 1006.3 |
| 20260509040817 | 59 | 282 | 4.0 | 6.0 | 0.00 | 0.00 | 0.00 | 72 | 1006.3 |
| 20260509040314 | 59 | 254 | 7.0 | 13.0 | 0.00 | 0.00 | 0.00 | 71 | 1006.1 |
| 20260509035811 | 60 | 251 | 4.0 | 4.0 | 0.00 | 0.00 | 0.00 | 70 | 1006.3 |
| 20260509035309 | 60 | 312 | 4.0 | 6.0 | 0.00 | 0.00 | 0.00 | 69 | 1006.3 |
| 20260509034805 | 60 | 237 | 4.0 | 4.0 | 0.00 | 0.00 | 0.00 | 69 | 1006.1 |
| 20260509034303 | 60 | 204 | 5.0 | 7.0 | 0.00 | 0.00 | 0.00 | 68 | 1006.3 |
| 20260509033759 | 60 | 290 | 3.0 | 4.0 | 0.00 | 0.00 | 0.00 | 67 | 1006.3 |
| 20260509033256 | 60 | 313 | 3.0 | 4.0 | 0.00 | 0.00 | 0.00 | 66 | 1006.4 |
| 20260509032753 | 60 | 241 | 7.0 | 8.0 | 0.00 | 0.00 | 0.00 | 65 | 1006.1 |
| 20260509032250 | 61 | 213 | 6.0 | 7.0 | 0.00 | 0.00 | 0.00 | 64 | 1006.1 |
| 20260509031748 | 61 | 230 | 10.0 | 13.0 | 0.00 | 0.00 | 0.00 | 62 | 1006.0 |
| 20260509031245 | 61 | 194 | 5.0 | 8.0 | 0.00 | 0.00 | 0.00 | 60 | 1005.8 |
| 20260509030743 | 61 | 258 | 5.0 | 8.0 | 0.00 | 0.00 | 0.00 | 58 | 1005.8 |
| 20260509030240 | 61 | 249 | 9.0 | 10.0 | 0.00 | 0.00 | 0.00 | 56 | 1005.7 |
| 20260509025737 | 61 | 208 | 4.0 | 7.0 | 0.00 | 0.00 | 0.00 | 53 | 1005.5 |
| 20260509025233 | 61 | 266 | 6.0 | 7.0 | 0.00 | 0.00 | 0.00 | 51 | 1005.4 |
| 20260509024728 | 62 | 211 | 4.0 | 4.0 | 0.00 | 0.00 | 0.00 | 49 | 1005.5 |
| 20260509024224 | 62 | 205 | 5.0 | 6.0 | 0.00 | 0.00 | 0.00 | 48 | 1005.5 |
| 20260509023722 | 62 | 231 | 8.0 | 9.0 | 0.00 | 0.00 | 0.00 | 48 | 1005.3 |
| 20260509023219 | 62 | 187 | 4.0 | 6.0 | 0.00 | 0.00 | 0.00 | 48 | 1005.2 |
| 20260509022714 | 63 | 232 | 6.0 | 7.0 | 0.00 | 0.00 | 0.00 | 48 | 1005.3 |
| 20260509022213 | 63 | 222 | 3.0 | 4.0 | 0.00 | 0.00 | 0.00 | 48 | 1005.2 |
| 20260509021709 | 63 | 194 | 7.0 | 8.0 | 0.00 | 0.00 | 0.00 | 47 | 1005.2 |
| 20260509021207 | 63 | 196 | 4.0 | 6.0 | 0.00 | 0.00 | 0.00 | 47 | 1005.2 |
| 20260509020705 | 64 | 225 | 4.0 | 6.0 | 0.00 | 0.00 | 0.00 | 47 | 1005.1 |
| 20260509020201 | 64 | 259 | 4.0 | 6.0 | 0.00 | 0.00 | 0.00 | 46 | 1005.1 |
| 20260509015700 | 64 | 244 | 4.0 | 4.0 | 0.00 | 0.00 | 0.00 | 46 | 1005.2 |
| 20260509015158 | 64 | 218 | 3.0 | 3.0 | 0.00 | 0.00 | 0.00 | 45 | 1005.0 |
| 20260509014654 | 65 | 246 | 2.0 | 3.0 | 0.00 | 0.00 | 0.00 | 45 | 1005.0 |
| 20260509014150 | 65 | 230 | 3.0 | 3.0 | 0.00 | 0.00 | 0.00 | 45 | 1004.9 |
| 20260509013647 | 65 | 202 | 2.0 | 3.0 | 0.00 | 0.00 | 0.00 | 44 | 1005.1 |
| 20260509013143 | 66 | 259 | 7.0 | 9.0 | 0.00 | 0.00 | 0.00 | 44 | 1005.0 |
| 20260509012640 | 66 | 206 | 3.0 | 4.0 | 0.00 | 0.00 | 0.00 | 43 | 1004.9 |
| 20260509012137 | 66 | 246 | 2.0 | 3.0 | 0.00 | 0.00 | 0.00 | 43 | 1005.1 |
| 20260509011635 | 67 | 277 | 3.0 | 6.0 | 0.00 | 0.00 | 0.00 | 42 | 1005.0 |
| 20260509011132 | 67 | 288 | 5.0 | 8.0 | 0.00 | 0.00 | 0.00 | 42 | 1005.1 |
| 20260509010629 | 67 | 204 | 6.0 | 9.0 | 0.00 | 0.00 | 0.00 | 41 | 1004.8 |
| 20260509010126 | 68 | 212 | 4.0 | 7.0 | 0.00 | 0.00 | 0.00 | 40 | 1005.1 |
| 20260509005624 | 68 | 223 | 9.0 | 13.0 | 0.00 | 0.00 | 0.00 | 39 | 1005.1 |
| 20260509005119 | 69 | 242 | 6.0 | 8.0 | 0.00 | 0.00 | 0.00 | 37 | 1005.1 |
| 20260509004615 | 70 | 238 | 4.0 | 6.0 | 0.00 | 0.00 | 0.00 | 31 | 1005.0 |
| 20260509004113 | 70 | 251 | 5.0 | 6.0 | 0.00 | 0.00 | 0.00 | 29 | 1005.1 |
| 20260509003611 | 71 | 329 | 4.0 | 6.0 | 0.00 | 0.00 | 0.00 | 29 | 1005.1 |
| 20260509003108 | 71 | 263 | 4.0 | 6.0 | 0.00 | 0.00 | 0.00 | 29 | 1005.1 |
| 20260509002606 | 71 | 265 | 2.0 | 2.0 | 0.00 | 0.00 | 0.00 | 28 | 1005.0 |
| 20260509002103 | 71 | 290 | 2.0 | 2.0 | 0.00 | 0.00 | 0.00 | 28 | 1005.1 |
| 20260509001600 | 71 | 215 | 6.0 | 7.0 | 0.00 | 0.00 | 0.00 | 28 | 1005.2 |
| 20260509001055 | 72 | 244 | 4.0 | 6.0 | 0.00 | 0.00 | 0.00 | 28 | 1005.2 |
| 20260509000554 | 72 | 232 | 2.0 | 3.0 | 0.00 | 0.00 | 0.00 | 28 | 1005.3 |
| 20260509000050 | 72 | 284 | 4.0 | 6.0 | 0.00 | 0.00 | 0.00 | 27 | 1005.2 |
| 20260508235548 | 72 | 324 | 3.0 | 3.0 | 0.00 | 0.00 | 0.00 | 27 | 1005.2 |
| 20260508235044 | 72 | 326 | 3.0 | 4.0 | 0.00 | 0.00 | 0.00 | 27 | 1005.4 |
| 20260508234541 | 72 | 332 | 4.0 | 4.0 | 0.00 | 0.00 | 0.00 | 27 | 1005.3 |
| 20260508234038 | 72 | 290 | 3.0 | 4.0 | 0.00 | 0.00 | 0.00 | 27 | 1005.4 |
| 20260508233532 | 72 | 249 | 2.0 | 3.0 | 0.00 | 0.00 | 0.00 | 27 | 1005.4 |
| 20260508233029 | 72 | 288 | 4.0 | 7.0 | 0.00 | 0.00 | 0.00 | 27 | 1005.5 |
| 20260508232526 | 72 | 273 | 4.0 | 4.0 | 0.00 | 0.00 | 0.00 | 27 | 1005.6 |
| 20260508232023 | 73 | 303 | 4.0 | 4.0 | 0.00 | 0.00 | 0.00 | 26 | 1005.6 |
| 20260508231520 | 73 | 269 | 5.0 | 7.0 | 0.00 | 0.00 | 0.00 | 26 | 1005.5 |
| 20260508231017 | 72 | 294 | 3.0 | 4.0 | 0.00 | 0.00 | 0.00 | 27 | 1005.7 |
| 20260508230514 | 73 | 292 | 3.0 | 4.0 | 0.00 | 0.00 | 0.00 | 26 | 1005.8 |
| 20260508230010 | 72 | 263 | 2.0 | 3.0 | 0.00 | 0.00 | 0.00 | 26 | 1005.8 |
| 20260508225508 | 74 | 253 | 6.0 | 7.0 | 0.00 | 0.00 | 0.00 | 26 | 1005.6 |
| 20260508225004 | 73 | 287 | 2.0 | 2.0 | 0.00 | 0.00 | 0.00 | 26 | 1005.9 |
| 20260508224502 | 73 | 278 | 4.0 | 4.0 | 0.00 | 0.00 | 0.00 | 26 | 1005.7 |
| 20260508223959 | 74 | 258 | 6.0 | 8.0 | 0.00 | 0.00 | 0.00 | 26 | 1005.8 |
| 20260508223457 | 73 | 219 | 4.0 | 7.0 | 0.00 | 0.00 | 0.00 | 26 | 1005.9 |
| 20260508222954 | 74 | 311 | 3.0 | 4.0 | 0.00 | 0.00 | 0.00 | 26 | 1006.0 |
| 20260508222452 | 73 | 322 | 5.0 | 7.0 | 0.00 | 0.00 | 0.00 | 25 | 1005.8 |
| 20260508221948 | 73 | 246 | 4.0 | 6.0 | 0.00 | 0.00 | 0.00 | 26 | 1005.9 |
| 20260508221444 | 73 | 236 | 10.0 | 13.0 | 0.00 | 0.00 | 0.00 | 26 | 1006.1 |
| 20260508220940 | 74 | 244 | 4.0 | 8.0 | 0.00 | 0.00 | 0.00 | 25 | 1006.1 |
| 20260508220437 | 74 | 225 | 4.0 | 7.0 | 0.00 | 0.00 | 0.00 | 25 | 1006.0 |
| 20260508215933 | 74 | 304 | 6.0 | 8.0 | 0.00 | 0.00 | 0.00 | 25 | 1005.8 |
| 20260508215430 | 74 | 320 | 2.0 | 3.0 | 0.00 | 0.00 | 0.00 | 25 | 1005.9 |
| 20260508214926 | 74 | 298 | 2.0 | 2.0 | 0.00 | 0.00 | 0.00 | 25 | 1006.0 |
| 20260508214425 | 74 | 299 | 3.0 | 3.0 | 0.00 | 0.00 | 0.00 | 25 | 1006.0 |
| 20260508213920 | 74 | 252 | 6.0 | 8.0 | 0.00 | 0.00 | 0.00 | 24 | 1006.3 |
| 20260508213418 | 73 | 249 | 7.0 | 8.0 | 0.00 | 0.00 | 0.00 | 24 | 1006.3 |
| 20260508212913 | 74 | 251 | 7.0 | 9.0 | 0.00 | 0.00 | 0.00 | 24 | 1006.3 |
| 20260508212410 | 73 | 279 | 2.0 | 2.0 | 0.00 | 0.00 | 0.00 | 24 | 1006.3 |
| 20260508211906 | 74 | 240 | 6.0 | 15.0 | 0.00 | 0.00 | 0.00 | 24 | 1006.4 |
| 20260508211401 | 73 | 316 | 2.0 | 3.0 | 0.00 | 0.00 | 0.00 | 24 | 1006.5 |
| 20260508210859 | 73 | 14 | 6.0 | 8.0 | 0.00 | 0.00 | 0.00 | 25 | 1006.4 |
| 20260508210355 | 73 | 277 | 5.0 | 6.0 | 0.00 | 0.00 | 0.00 | 24 | 1006.6 |
| 20260508205852 | 74 | 315 | 3.0 | 4.0 | 0.00 | 0.00 | 0.00 | 23 | 1006.7 |
| 20260508205349 | 73 | 323 | 5.0 | 6.0 | 0.00 | 0.00 | 0.00 | 23 | 1006.7 |
| 20260508204845 | 73 | 306 | 8.0 | 9.0 | 0.00 | 0.00 | 0.00 | 24 | 1006.6 |
| 20260508204342 | 73 | 316 | 4.0 | 6.0 | 0.00 | 0.00 | 0.00 | 24 | 1006.7 |
| 20260508203838 | 72 | 316 | 6.0 | 8.0 | 0.00 | 0.00 | 0.00 | 26 | 1006.8 |
| 20260508203334 | 73 | 237 | 5.0 | 7.0 | 0.00 | 0.00 | 0.00 | 25 | 1006.8 |
| 20260508202830 | 73 | 316 | 4.0 | 6.0 | 0.00 | 0.00 | 0.00 | 25 | 1007.1 |
| 20260508202328 | 73 | 268 | 8.0 | 10.0 | 0.00 | 0.00 | 0.00 | 25 | 1007.2 |
| 20260508201825 | 73 | 355 | 3.0 | 3.0 | 0.00 | 0.00 | 0.00 | 25 | 1007.2 |
| 20260508201322 | 72 | 305 | 7.0 | 9.0 | 0.00 | 0.00 | 0.00 | 26 | 1007.3 |
| 20260508200818 | 73 | 221 | 6.0 | 10.0 | 0.00 | 0.00 | 0.00 | 26 | 1007.3 |
| 20260508200315 | 73 | 273 | 2.0 | 2.0 | 0.00 | 0.00 | 0.00 | 25 | 1007.3 |
| 20260508195811 | 73 | 301 | 4.0 | 6.0 | 0.00 | 0.00 | 0.00 | 24 | 1007.4 |
| 20260508195307 | 73 | 314 | 0.0 | 1.0 | 0.00 | 0.00 | 0.00 | 24 | 1007.6 |
| 20260508194804 | 72 | 244 | 1.0 | 2.0 | 0.00 | 0.00 | 0.00 | 24 | 1007.6 |
| 20260508194301 | 73 | 239 | 2.0 | 3.0 | 0.00 | 0.00 | 0.00 | 25 | 1007.7 |
| 20260508193758 | 72 | 332 | 6.0 | 8.0 | 0.00 | 0.00 | 0.00 | 25 | 1007.6 |
| 20260508193255 | 73 | 286 | 6.0 | 7.0 | 0.00 | 0.00 | 0.00 | 24 | 1007.9 |
| 20260508192751 | 73 | 307 | 6.0 | 10.0 | 0.00 | 0.00 | 0.00 | 24 | 1007.9 |
| 20260508192248 | 72 | 313 | 2.0 | 2.0 | 0.00 | 0.00 | 0.00 | 25 | 1007.9 |
| 20260508191745 | 72 | 217 | 5.0 | 7.0 | 0.00 | 0.00 | 0.00 | 25 | 1007.8 |
| 20260508191242 | 73 | 340 | 2.0 | 3.0 | 0.00 | 0.00 | 0.00 | 25 | 1008.0 |
| 20260508190739 | 71 | 323 | 2.0 | 2.0 | 0.00 | 0.00 | 0.00 | 26 | 1008.0 |
| 20260508190235 | 72 | 295 | 6.0 | 7.0 | 0.00 | 0.00 | 0.00 | 25 | 1008.0 |
| 20260508185732 | 72 | 341 | 0.0 | 1.0 | 0.00 | 0.00 | 0.00 | 26 | 1008.0 |
| 20260508185230 | 71 | 354 | 3.0 | 4.0 | 0.00 | 0.00 | 0.00 | 26 | 1008.4 |
| 20260508184727 | 71 | 297 | 2.0 | 3.0 | 0.00 | 0.00 | 0.00 | 26 | 1008.5 |
| 20260508184224 | 71 | 335 | 3.0 | 4.0 | 0.00 | 0.00 | 0.00 | 27 | 1008.5 |
| 20260508183721 | 70 | 195 | 2.0 | 3.0 | 0.00 | 0.00 | 0.00 | 27 | 1008.4 |
| 20260508183217 | 70 | 28 | 2.0 | 3.0 | 0.00 | 0.00 | 0.00 | 27 | 1008.5 |
| 20260508182713 | 70 | 308 | 1.0 | 1.0 | 0.00 | 0.00 | 0.00 | 25 | 1008.6 |
| 20260508182210 | 70 | 329 | 5.0 | 7.0 | 0.00 | 0.00 | 0.00 | 27 | 1008.6 |
| 20260508181706 | 70 | 310 | 4.0 | 6.0 | 0.00 | 0.00 | 0.00 | 27 | 1008.6 |
| 20260508181203 | 70 | 339 | 5.0 | 8.0 | 0.00 | 0.00 | 0.00 | 27 | 1008.6 |
| 20260508180659 | 70 | 357 | 6.0 | 6.0 | 0.00 | 0.00 | 0.00 | 26 | 1008.7 |
| 20260508180156 | 71 | 299 | 2.0 | 2.0 | 0.00 | 0.00 | 0.00 | 27 | 1008.6 |
| 20260508175648 | 70 | 321 | 2.0 | 2.0 | 0.00 | 0.00 | 0.00 | 28 | 1008.8 |
| 20260508175144 | 70 | 330 | 2.0 | 2.0 | 0.00 | 0.00 | 0.00 | 26 | 1009.0 |
| 20260508174642 | 70 | 211 | 4.0 | 4.0 | 0.00 | 0.00 | 0.00 | 26 | 1009.2 |
| 20260508174138 | 71 | 291 | 3.0 | 4.0 | 0.00 | 0.00 | 0.00 | 32 | 1009.2 |
| 20260508173635 | 69 | 317 | 1.0 | 1.0 | 0.00 | 0.00 | 0.00 | 33 | 1009.3 |
| 20260508173131 | 68 | 317 | 4.0 | 8.0 | 0.00 | 0.00 | 0.00 | 34 | 1009.4 |
| 20260508172629 | 69 | 275 | 3.0 | 3.0 | 0.00 | 0.00 | 0.00 | 33 | 1009.5 |
| 20260508172125 | 69 | 261 | 2.0 | 2.0 | 0.00 | 0.00 | 0.00 | 34 | 1009.5 |
| 20260508171622 | 68 | 19 | 2.0 | 2.0 | 0.00 | 0.00 | 0.00 | 36 | 1009.7 |
| 20260508171118 | 67 | 36 | 4.0 | 4.0 | 0.00 | 0.00 | 0.00 | 37 | 1009.8 |
| 20260508170616 | 69 | 60 | 2.0 | 2.0 | 0.00 | 0.00 | 0.00 | 36 | 1010.0 |
| 20260508170113 | 67 | 62 | 2.0 | 3.0 | 0.00 | 0.00 | 0.00 | 37 | 1009.9 |
| 20260508165610 | 68 | 13 | 2.0 | 2.0 | 0.00 | 0.00 | 0.00 | 37 | 1010.1 |
| 20260508165107 | 69 | 333 | 0.0 | 1.0 | 0.00 | 0.00 | 0.00 | 37 | 1010.1 |
| 20260508164603 | 68 | 331 | 0.0 | 0.0 | 0.00 | 0.00 | 0.00 | 36 | 1010.1 |
| 20260508164100 | 67 | 52 | 1.0 | 2.0 | 0.00 | 0.00 | 0.00 | 38 | 1010.3 |
| 20260508163558 | 66 | 336 | 2.0 | 2.0 | 0.00 | 0.00 | 0.00 | 41 | 1010.3 |
| 20260508163054 | 67 | 6 | 3.0 | 4.0 | 0.00 | 0.00 | 0.00 | 39 | 1010.2 |
| 20260508162551 | 68 | 351 | 0.0 | 1.0 | 0.00 | 0.00 | 0.00 | 39 | 1010.2 |
| 20260508162048 | 66 | 260 | 2.0 | 2.0 | 0.00 | 0.00 | 0.00 | 42 | 1010.3 |
| 20260508161545 | 66 | 325 | 2.0 | 2.0 | 0.00 | 0.00 | 0.00 | 45 | 1010.4 |
| 20260508161042 | 67 | 106 | 4.0 | 4.0 | 0.00 | 0.00 | 0.00 | 44 | 1010.6 |
| 20260508160541 | 65 | 316 | 1.0 | 1.0 | 0.00 | 0.00 | 0.00 | 47 | 1010.5 |
| 20260508160037 | 65 | 12 | 1.0 | 2.0 | 0.00 | 0.00 | 0.00 | 49 | 1010.5 |
| 20260508155535 | 64 | 256 | 1.0 | 2.0 | 0.00 | 0.00 | 0.00 | 47 | 1010.6 |
| 20260508155031 | 63 | 108 | 1.0 | 2.0 | 0.00 | 0.00 | 0.00 | 50 | 1010.5 |
| 20260508154529 | 64 | 73 | 3.0 | 3.0 | 0.00 | 0.00 | 0.00 | 52 | 1010.6 |
| 20260508154025 | 64 | 43 | 2.0 | 2.0 | 0.00 | 0.00 | 0.00 | 52 | 1010.8 |
| 20260508153522 | 63 | 26 | 4.0 | 4.0 | 0.00 | 0.00 | 0.00 | 52 | 1010.8 |
| 20260508153019 | 64 | 300 | 2.0 | 3.0 | 0.00 | 0.00 | 0.00 | 52 | 1010.9 |
| 20260508152516 | 64 | 331 | 0.0 | 0.0 | 0.00 | 0.00 | 0.00 | 49 | 1010.9 |
| 20260508152011 | 63 | 91 | 2.0 | 3.0 | 0.00 | 0.00 | 0.00 | 52 | 1011.0 |
| 20260508151508 | 62 | 7 | 1.0 | 2.0 | 0.00 | 0.00 | 0.00 | 53 | 1010.9 |
| 20260508151004 | 65 | 85 | 3.0 | 3.0 | 0.00 | 0.00 | 0.00 | 52 | 1010.9 |
| 20260508150502 | 63 | 333 | 0.0 | 0.0 | 0.00 | 0.00 | 0.00 | 52 | 1011.1 |
| 20260508145957 | 63 | 29 | 2.0 | 3.0 | 0.00 | 0.00 | 0.00 | 52 | 1010.9 |
| 20260508145454 | 62 | 303 | 2.0 | 3.0 | 0.00 | 0.00 | 0.00 | 53 | 1011.1 |
| 20260508144950 | 62 | 139 | 3.0 | 4.0 | 0.00 | 0.00 | 0.00 | 53 | 1011.1 |
| 20260508144448 | 63 | 47 | 1.0 | 2.0 | 0.00 | 0.00 | 0.00 | 51 | 1011.2 |
| 20260508143945 | 63 | 284 | 1.0 | 2.0 | 0.00 | 0.00 | 0.00 | 50 | 1011.2 |
| 20260508143443 | 61 | 26 | 1.0 | 2.0 | 0.00 | 0.00 | 0.00 | 53 | 1011.1 |
| 20260508142939 | 61 | 309 | 1.0 | 1.0 | 0.00 | 0.00 | 0.00 | 54 | 1011.3 |
| 20260508142437 | 60 | 172 | 3.0 | 4.0 | 0.00 | 0.00 | 0.00 | 55 | 1011.5 |
| 20260508141933 | 60 | 253 | 2.0 | 2.0 | 0.00 | 0.00 | 0.00 | 55 | 1011.5 |
| 20260508141429 | 59 | 319 | 0.0 | 1.0 | 0.00 | 0.00 | 0.00 | 55 | 1011.5 |
| 20260508140927 | 60 | 23 | 4.0 | 4.0 | 0.00 | 0.00 | 0.00 | 54 | 1011.5 |
| 20260508140424 | 59 | 325 | 0.0 | 1.0 | 0.00 | 0.00 | 0.00 | 53 | 1011.6 |
| 20260508135920 | 58 | 17 | 2.0 | 2.0 | 0.00 | 0.00 | 0.00 | 53 | 1011.3 |
| 20260508135417 | 57 | 348 | 1.0 | 1.0 | 0.00 | 0.00 | 0.00 | 54 | 1011.4 |
| 20260508134913 | 56 | 30 | 2.0 | 2.0 | 0.00 | 0.00 | 0.00 | 54 | 1011.7 |
| 20260508134409 | 56 | 42 | 2.0 | 2.0 | 0.00 | 0.00 | 0.00 | 52 | 1011.6 |
| 20260508133906 | 54 | 346 | 0.0 | 0.0 | 0.00 | 0.00 | 0.00 | 53 | 1011.5 |
| 20260508133404 | 53 | 62 | 1.0 | 1.0 | 0.00 | 0.00 | 0.00 | 54 | 1011.3 |
| 20260508132901 | 52 | 13 | 1.0 | 1.0 | 0.00 | 0.00 | 0.00 | 56 | 1011.7 |
| 20260508132359 | 52 | 48 | 2.0 | 3.0 | 0.00 | 0.00 | 0.00 | 55 | 1011.6 |
| 20260508131855 | 53 | 49 | 1.0 | 2.0 | 0.00 | 0.00 | 0.00 | 53 | 1011.5 |
| 20260508131350 | 52 | 344 | 0.0 | 0.0 | 0.00 | 0.00 | 0.00 | 55 | 1011.5 |
| 20260508130848 | 52 | 353 | 0.0 | 1.0 | 0.00 | 0.00 | 0.00 | 54 | 1011.6 |
| 20260508130344 | 50 | 341 | 2.0 | 2.0 | 0.00 | 0.00 | 0.00 | 57 | 1011.5 |
| 20260508125840 | 50 | 337 | 0.0 | 0.0 | 0.00 | 0.00 | 0.00 | 55 | 1011.5 |
| 20260508125336 | 49 | 31 | 2.0 | 3.0 | 0.00 | 0.00 | 0.00 | 59 | 1011.5 |
| 20260508124834 | 48 | 31 | 1.0 | 2.0 | 0.00 | 0.00 | 0.00 | 60 | 1011.3 |
| 20260508124331 | 47 | 350 | 0.0 | 1.0 | 0.00 | 0.00 | 0.00 | 63 | 1011.5 |
| 20260508123829 | 49 | 21 | 1.0 | 1.0 | 0.00 | 0.00 | 0.00 | 61 | 1011.5 |
| 20260508123327 | 51 | 347 | 0.0 | 0.0 | 0.00 | 0.00 | 0.00 | 56 | 1011.7 |
| 20260508122823 | 48 | 347 | 0.0 | 0.0 | 0.00 | 0.00 | 0.00 | 57 | 1011.6 |
| 20260508122320 | 45 | 347 | 0.0 | 0.0 | 0.00 | 0.00 | 0.00 | 67 | 1011.7 |
| 20260508121817 | 43 | 338 | 0.0 | 1.0 | 0.00 | 0.00 | 0.00 | 69 | 1011.6 |
| 20260508121316 | 42 | 332 | 0.0 | 0.0 | 0.00 | 0.00 | 0.00 | 72 | 1011.6 |
| 20260508120813 | 42 | 343 | 0.0 | 0.0 | 0.00 | 0.00 | 0.00 | 74 | 1011.4 |
| 20260508120311 | 41 | 318 | 1.0 | 1.0 | 0.00 | 0.00 | 0.00 | 77 | 1011.4 |
| 20260508115808 | 41 | 6 | 1.0 | 1.0 | 0.00 | 0.00 | 0.00 | 80 | 1011.5 |
| 20260508115306 | 41 | 22 | 1.0 | 2.0 | 0.00 | 0.00 | 0.00 | 79 | 1011.4 |
| 20260508114802 | 41 | 338 | 0.0 | 1.0 | 0.00 | 0.00 | 0.00 | 78 | 1011.6 |
| 20260508114259 | 41 | 338 | 0.0 | 0.0 | 0.00 | 0.00 | 0.00 | 77 | 1011.5 |
| 20260508113755 | 41 | 339 | 0.0 | 0.0 | 0.00 | 0.00 | 0.00 | 78 | 1011.4 |
| 20260508113254 | 41 | 339 | 0.0 | 0.0 | 0.00 | 0.00 | 0.00 | 79 | 1011.3 |
| 20260508112749 | 40 | 338 | 0.0 | 0.0 | 0.00 | 0.00 | 0.00 | 81 | 1011.4 |
| 20260508112247 | 39 | 326 | 0.0 | 0.0 | 0.00 | 0.00 | 0.00 | 83 | 1011.3 |
| 20260508111743 | 38 | 328 | 0.0 | 0.0 | 0.00 | 0.00 | 0.00 | 84 | 1011.3 |
| 20260508111241 | 38 | 329 | 0.0 | 0.0 | 0.00 | 0.00 | 0.00 | 85 | 1011.3 |
| 20260508110738 | 38 | 329 | 0.0 | 0.0 | 0.00 | 0.00 | 0.00 | 84 | 1011.1 |
| 20260508110236 | 38 | 352 | 1.0 | 2.0 | 0.00 | 0.00 | 0.00 | 84 | 1011.1 |
| 20260508105735 | 38 | 325 | 0.0 | 0.0 | 0.00 | 0.00 | 0.00 | 85 | 1011.1 |
| 20260508105232 | 38 | 327 | 1.0 | 1.0 | 0.00 | 0.00 | 0.00 | 85 | 1011.1 |
| 20260508104729 | 38 | 318 | 0.0 | 1.0 | 0.00 | 0.00 | 0.00 | 85 | 1011.0 |
| 20260508104226 | 38 | 332 | 1.0 | 2.0 | 0.00 | 0.00 | 0.00 | 84 | 1010.9 |
| 20260508103724 | 38 | 331 | 0.0 | 0.0 | 0.00 | 0.00 | 0.00 | 82 | 1010.9 |
| 20260508103220 | 38 | 331 | 0.0 | 0.0 | 0.00 | 0.00 | 0.00 | 82 | 1011.0 |
| 20260508102718 | 39 | 336 | 0.0 | 0.0 | 0.00 | 0.00 | 0.00 | 81 | 1011.1 |
| 20260508102216 | 39 | 345 | 1.0 | 1.0 | 0.00 | 0.00 | 0.00 | 81 | 1010.9 |
| 20260508101712 | 39 | 324 | 0.0 | 0.0 | 0.00 | 0.00 | 0.00 | 81 | 1011.1 |
| 20260508101210 | 38 | 328 | 0.0 | 0.0 | 0.00 | 0.00 | 0.00 | 82 | 1011.1 |
| 20260508100707 | 39 | 330 | 0.0 | 0.0 | 0.00 | 0.00 | 0.00 | 82 | 1011.1 |
| 20260508100205 | 39 | 338 | 0.0 | 1.0 | 0.00 | 0.00 | 0.00 | 82 | 1011.2 |
| 20260508095656 | 39 | 336 | 0.0 | 0.0 | 0.00 | 0.00 | 0.00 | 82 | 1011.0 |
| 20260508095154 | 39 | 336 | 0.0 | 0.0 | 0.00 | 0.00 | 0.00 | 82 | 1011.1 |
| 20260508094650 | 39 | 337 | 0.0 | 0.0 | 0.00 | 0.00 | 0.00 | 81 | 1011.2 |
| 20260508094147 | 39 | 345 | 1.0 | 1.0 | 0.00 | 0.00 | 0.00 | 81 | 1011.2 |
| 20260508093645 | 39 | 350 | 1.0 | 1.0 | 0.00 | 0.00 | 0.00 | 83 | 1011.3 |
| 20260508093142 | 39 | 5 | 2.0 | 2.0 | 0.00 | 0.00 | 0.00 | 85 | 1011.4 |
| 20260508092639 | 39 | 343 | 0.0 | 1.0 | 0.00 | 0.00 | 0.00 | 86 | 1011.3 |
| 20260508092138 | 40 | 332 | 0.0 | 0.0 | 0.00 | 0.00 | 0.00 | 86 | 1011.4 |
| 20260508091635 | 40 | 351 | 1.0 | 2.0 | 0.00 | 0.00 | 0.00 | 86 | 1011.6 |
| 20260508091132 | 40 | 341 | 1.0 | 1.0 | 0.00 | 0.00 | 0.00 | 86 | 1011.5 |
| 20260508090630 | 40 | 342 | 1.0 | 1.0 | 0.00 | 0.00 | 0.00 | 86 | 1011.4 |
| 20260508090127 | 40 | 320 | 0.0 | 0.0 | 0.00 | 0.00 | 0.00 | 86 | 1011.5 |
| 20260508085622 | 40 | 335 | 0.0 | 1.0 | 0.00 | 0.00 | 0.00 | 86 | 1011.4 |
| 20260508085120 | 40 | 330 | 1.0 | 1.0 | 0.00 | 0.00 | 0.00 | 85 | 1011.5 |
| 20260508084616 | 41 | 343 | 0.0 | 1.0 | 0.00 | 0.00 | 0.00 | 83 | 1011.5 |
| 20260508084114 | 42 | 337 | 1.0 | 1.0 | 0.00 | 0.00 | 0.00 | 81 | 1011.5 |
| 20260508083611 | 42 | 333 | 0.0 | 0.0 | 0.00 | 0.00 | 0.00 | 79 | 1011.6 |
| 20260508083108 | 43 | 336 | 0.0 | 1.0 | 0.00 | 0.00 | 0.00 | 76 | 1011.6 |
| 20260508082603 | 43 | 342 | 0.0 | 0.0 | 0.00 | 0.00 | 0.00 | 75 | 1011.6 |